Tracking 30685 objects as of 17-Jun-2025
HD Live streaming from Space Station
objects crossing your sky now

SL-24 DEB

Track SL-24 DEB now!
10-day predictions


NORAD ID: 33318
Int'l Code: 2008-040G
Perigee: 518.9 km
Apogee: 536.1 km
Inclination: 98.0 °
Period: 95.0 minutes
Semi major axis: 6898 km
RCS: 5.1176 m2 (large)
Launch date: August 29, 2008
Source: Commonwealth of Independent States (former USSR) (CIS)
Launch site: TYURATAM MISSILE AND SPACE COMPLEX (TTMTR)

Note: This is SATELLITE DEBRIS
Your satellite tracking list
Your tracking list is empty




NASA's NSSDC Master Catalog

Two Line Element Set (TLE):
1 33318U 08040G   25168.00300123  .00006298  00000-0  33871-3 0  9991
2 33318  97.9749  83.3843 0012457 276.3196  83.6616 15.15193986914335
Source of the keplerian elements: AFSPC